GW1620 Weather Reports


Display with metric or nautical units.
time (UTC)temp
F
wind
direction
speed
MPH
gust
MPH
rain 1hr
in
rain 24hr
in
rain mn
in
humidity
%
barometer
mb
20260504173041 65 328 1.0 5.0 0.51 1.07 1.07 98 1011.4
20260504171542 66 304 4.0 8.0 0.51 1.07 1.07 99 1011.2
20260504081549 75 210 4.0 9.0 0.00 0.00 0.00 76 1008.3
20260504044539 61 288 0.0 3.0 0.00 0.00 0.00 74 1008.2
20260504043040 62 287 0.0 3.0 0.00 0.00 0.00 72 1008.0
20260504041535 64 295 0.0 3.0 0.00 0.00 0.00 68 1008.0
20260504040046 67 233 1.0 3.0 0.00 0.00 0.00 62 1008.1
20260504034543 67 196 0.0 1.0 0.00 0.00 0.00 65 1008.3
20260504033041 66 0 0.0 2.0 0.00 0.00 0.00 67 1008.2
20260504031539 62 279 0.0 2.0 0.00 0.00 0.00 74 1008.0
20260504030039 62 327 1.0 5.0 0.00 0.00 0.00 72 1007.8
20260504024547 63 338 1.0 4.0 0.00 0.00 0.00 71 1007.8
20260504023040 64 320 2.0 5.0 0.00 0.00 0.00 70 1007.9
20260504021540 65 313 2.0 4.0 0.00 0.00 0.00 67 1008.0
20260504020040 66 323 4.0 8.0 0.00 0.00 0.00 65 1008.1
20260504014550 66 331 4.0 9.0 0.00 0.00 0.00 66 1008.1
20260504013041 64 288 5.0 9.0 0.00 0.00 0.00 69 1008.0
20260504011547 69 323 5.0 11.0 0.00 0.00 0.00 61 1008.3
20260504010046 66 314 4.0 9.0 0.00 0.00 0.00 65 1008.4
20260504004542 64 325 4.0 7.0 0.00 0.00 0.00 71 1008.5
20260504003042 63 333 3.0 7.0 0.00 0.00 0.00 73 1008.6
20260504001547 63 326 4.0 6.0 0.00 0.00 0.00 72 1008.7
20260504000044 65 317 3.0 7.0 0.00 0.00 0.00 69 1008.9
20260503234536 66 319 4.0 6.0 0.00 0.00 0.00 67 1008.9
20260503233045 64 316 4.0 6.0 0.00 0.00 0.00 70 1009.1
20260503231544 65 295 4.0 8.0 0.00 0.00 0.00 69 1009.2
20260503230040 65 305 4.0 7.0 0.00 0.00 0.00 72 1009.3
20260503224543 61 299 4.0 7.0 0.00 0.00 0.00 79 1009.4
20260503223036 61 328 4.0 7.0 0.00 0.00 0.00 79 1009.5
20260503221555 60 313 4.0 7.0 0.00 0.00 0.00 81 1009.6
20260503220052 59 313 4.0 6.0 0.00 0.00 0.00 84 1009.6
20260503214542 58 300 2.0 3.0 0.00 0.00 0.00 84 1009.7
20260503213049 59 0 0.0 0.0 0.00 0.00 0.00 84 1010.0
20260503211541 59 0 1.0 3.0 0.00 0.00 0.00 83 1010.1
20260503210047 59 0 0.0 0.0 0.00 0.00 0.00 82 1010.1
20260503204558 60 0 0.0 0.0 0.00 0.00 0.00 82 1010.4
20260503203046 61 0 0.0 0.0 0.00 0.00 0.00 81 1010.6
20260503201541 61 0 0.0 1.0 0.00 0.00 0.00 81 1010.7
20260503200045 62 305 0.0 1.0 0.00 0.00 0.00 82 1011.0
20260503194540 64 305 0.0 1.0 0.00 0.00 0.00 80 1011.1
20260503193036 66 102 0.0 1.0 0.00 0.00 0.00 80 1011.2
20260503191535 66 0 0.0 1.0 0.00 0.00 0.00 79 1011.2
20260503190049 65 0 0.0 0.0 0.00 0.00 0.00 80 1011.3
20260503184540 66 0 0.0 1.0 0.00 0.00 0.00 78 1011.4
20260503183045 67 0 0.0 1.0 0.00 0.00 0.00 78 1011.6
20260503181540 68 99 0.0 1.0 0.00 0.00 0.00 75 1011.6
20260503180044 69 0 0.0 2.0 0.00 0.00 0.00 73 1011.7
20260503174536 69 96 1.0 3.0 0.00 0.00 0.00 69 1011.8